Oklahoma City, OK

6:02 PM CST on February 23, 2017 (GMT -0600)
Tinker Air Force Base

Weather History for KTIK - October, 2013

Change the Weather History Date:

Sunday, October 20, 2013

  Actual Average Record
Temperature  
Mean Temperature 56 °F -  
Max Temperature 70 °F 68 °F 87 °F (2003)
Min Temperature 41 °F 49 °F 39 °F (2011)
Degree Days  
Heating Degree Days 10    
Growing Degree Days 6 (Base 50)    
Moisture  
Dew Point 42 °F    
Average Humidity 64    
Maximum Humidity 86    
Minimum Humidity 40    
Precipitation  
Precipitation 0.00 in - - ()
Sea Level Pressure  
Sea Level Pressure 29.94 in    
Wind  
Wind Speed 11 mph (South)    
Max Wind Speed 22 mph    
Max Gust Speed 28 mph    
Visibility 10 miles    
Events      
Averages and records for this station are not official NWS values.
T = Trace of Precipitation, MM = Missing Value Source: NWS Daily Summary

Daily Weather History Graph

Daily Weather History Graph

Search for Another Location

Airport or City:

Trip Planner

Search our weather history database for the weather conditions in past years. The results will help you decide how hot, cold, wet, or windy it might be!

Date:

Astronomy

Oct. 20, 2013 Rise Set
Actual Time 7:40 AM CDT 6:47 PM CDT
Civil Twilight 7:14 AM CDT 7:13 PM CDT
Nautical Twilight 6:44 AM CDT 7:43 PM CDT
Astronomical Twilight 6:15 AM CDT 8:12 PM CDT
Moon 8:01 PM CDT (10/20) 9:15 AM CDT (10/20)
Length of Visible Light 11h 58m
Length of Day
11h 07m
Full, 97% of the Moon is Illuminated
Oct 20
Full
Oct 26
Last Quarter
Nov 3
New
Nov 9
First Quarter
Nov 17
Full

Hourly Weather History & Observations

Time (CDT) Temp. Windchill Dew Point Humidity Pressure Visibility Wind Dir Wind Speed Gust Speed Precip Events Conditions
12:58 AM 45.7 °F 41.5 °F 39.0 °F 78% 30.04 in 10.0 mi South 8.1 mph - N/A   Clear
1:58 AM 44.2 °F 39.7 °F 38.8 °F 81% 30.03 in 10.0 mi South 8.1 mph - N/A   Clear
2:58 AM 43.7 °F 38.6 °F 38.5 °F 82% 30.02 in 10.0 mi South 9.2 mph - N/A   Clear
3:58 AM 42.6 °F 36.8 °F 37.9 °F 83% 30.00 in 10.0 mi SSW 10.4 mph - N/A   Clear
4:58 AM 43.5 °F 37.5 °F 37.9 °F 81% 29.99 in 10.0 mi South 11.5 mph - N/A   Clear
5:58 AM 42.1 °F 36.6 °F 37.2 °F 83% 29.99 in 10.0 mi South 9.2 mph - N/A   Clear
6:58 AM 42.4 °F 36.1 °F 37.8 °F 83% 29.99 in 10.0 mi South 11.5 mph - N/A   Clear
7:58 AM 41.9 °F 35.4 °F 37.9 °F 86% 29.98 in 10.0 mi South 11.5 mph - N/A   Clear
8:58 AM 45.9 °F 40.8 °F 39.6 °F 79% 29.99 in 10.0 mi South 10.4 mph - N/A   Clear
9:58 AM 54.3 °F - 41.4 °F 62% 29.98 in 10.0 mi South 16.1 mph 23.0 mph N/A   Clear
10:58 AM 59.9 °F - 41.7 °F 51% 29.97 in 10.0 mi South 16.1 mph - N/A   Clear
11:58 AM 63.9 °F - 40.3 °F 42% 29.95 in 10.0 mi South 21.9 mph 27.6 mph N/A   Clear
12:58 PM 66.2 °F - 43.9 °F 44% 29.91 in 10.0 mi SSE 12.7 mph - N/A   Clear
1:58 PM 68.5 °F - 43.0 °F 40% 29.88 in 10.0 mi South 17.3 mph - N/A   Clear
2:58 PM 70.0 °F - 44.8 °F 40% 29.85 in 10.0 mi South 20.7 mph 26.5 mph N/A   Clear
3:58 PM 70.2 °F - 45.9 °F 42% 29.84 in 10.0 mi South 17.3 mph 24.2 mph N/A   Clear
4:58 PM 69.8 °F - 46.8 °F 44% 29.82 in 10.0 mi South 15.0 mph 23.0 mph N/A   Clear
5:58 PM 67.5 °F - 46.6 °F 47% 29.83 in 10.0 mi South 16.1 mph - N/A   Clear
6:58 PM 62.6 °F - 46.2 °F 55% 29.86 in 10.0 mi South 8.1 mph - N/A   Clear
7:58 PM 59.0 °F - 46.6 °F 63% 29.89 in 10.0 mi SSE 6.9 mph - N/A   Clear
8:58 PM 57.9 °F - 44.4 °F 61% 29.91 in 10.0 mi SE 3.5 mph - N/A   Clear
9:58 PM 55.2 °F - 43.5 °F 65% 29.93 in 10.0 mi East 4.6 mph - N/A   Clear
10:58 PM 53.2 °F - 42.3 °F 66% 29.94 in 10.0 mi SE 5.8 mph - N/A   Clear
11:58 PM 51.8 °F - 42.6 °F 71% 29.94 in 10.0 mi ESE 6.9 mph - N/A   Clear